Location: Seasalter
(51.3333°N, 1.0167°E)
Time: 05:15:35
(UTC+00:00)

ATLAS 5 CENTAUR R/B - Pass Details

Date: 30 April 2024
Orbit: 421 x 1170 km, 63.3° (Epoch: 18 May)

Event Time Altitude Azimuth Distance (km) Brightness Sun altitude
Rises 20:13:53 0° 302° (WNW) 2,595 7.2 -8.3°
Reaches altitude 10° 20:16:33 10° 324° (NW) 1,816 5.4 -8.6°
Maximum altitude 20:19:15 17° 6° (N) 1,537 4.0 -8.9°
Drops below altitude 10° 20:22:17 10° 47° (NE) 2,081 4.2 -9.3°
Sets 20:25:38 0° 67° (ENE) 3,170 4.9 -9.7°
